SCP
0 0 0 0 0 0 0 0 0 0 0 0 0 0 0 0 0 0 0 0 0 0 0 0 0 0 0 0 0 0 0 0
0 0 0 0 0 0 0 0 0 0 0 0 0 0 0 0 0 0 0 0 0 0 0 0 0 0 0 0 0 0 0 0
0 0 0 0 0 0 0 0 0 0 0 0 0 0 0 0 0 0 0 0 0 0 0 0 0 -0 -0 -0 0 0 -0 0
0 0 0 0 0 0 0 0 0 0 0 0 0 0 0 0 0 0 0 0 0 0 0 0 0 -0 0 0 0 0 0 0
0 0 0 0 0 0 0 0 0 0 0 0 0 0 0 0 0 0 0 0 0 0 0 0 -0 0 0 0 0 0 0 0
0 0 0 0 0 0 0 0 0 0 0 0 0 0 0 0 0 0 0 0 0 0 0 0 0 0 0 0 0 0 0 0
0 0 0 0 0 0 0 0 0 0 0 0 0 0 0 0 0 0 0 0 0 0 0 0 -0 0 0 0 0 0 0 0
0 0 0 0 0 0 0 0 0 0 0 0 0 0 0 0 0 0 0 0 0 0 0 0 -0 0 0 0 0 0 0 0
0 0 0 0 0 0 0 0 0 0 0 0 0 0 0 0 0 0 0 0 0 0 0 -0 -0 0 0 0 0 0 0 0
0 0 0 0 0 0 0 0 0 0 0 0 0 0 0 0 0 -0 -0 0 0 0 0 -0 -0 0 0 0 0 0 0 0
0 0 0 0 0 0 0 0 0 0 0 0 0 0 0 0 0 -0 -0 0 0 -0 -0 -0 0 0 0 0 0 0 0 0
0 0 0 0 0 0 0 0 0 0 0 0 0 0 0 0 0 0 0 0 0 0 0 0 0 0 0 0 0 0 0 0
0 0 0 0 0 0 0 0 0 0 0 0 0 0 0 0 0 0 0 0 0 0 0 0 0 0 0 0 0 0 0 0
0 0 0 0 0 0 0 0 0 0 0 0 0 0 0 0 0 0 0 0 0 0 0 0 0 0 0 0 0 0 0 0
0 0 0 0 0 0 0 0 0 0 0 0 0 0 0 0 0 0 0 0 0 0 0 0 0 0 0 0 0 0 0 0
0 0 0 0 0 0 0 0 0 0 0 0 0 0 0 0 0 0 0 0 0 0 0 0 0 0 0 0 0 0 0 0
0 0 0 0 0 0 0 0 0 0 0 0 0 0 0 0 0 0 0 -0 0 0 0 0 0 -0 0 0 0 0 0 0
0 0 0 0 0 0 0 0 0 0 0 0 0 0 0 0 -0 -0 -0 -0 -0 -0 -0 -0 -0 0 0 0 0 0 0 0
0 0 0 0 0 0 0 0 0 0 0 0 0 0 0 0 -0 -0 0 0 -0 -0 -0 0 0 0 0 0 0 0 0 0
0 0 0 0 0 0 0 0 0 0 0 0 0 0 0 0 0 0 -0 0 0 0 0 0 0 0 0 0 0 0 0 0
Wind_Speed_500mb
4 5 15 17 28 25 26 24 27 32 37 43 49 54 58 56 53 49 45 49 54 55 52 44 39 29 24 28 27 31 30 27
6 8 12 18 11 16 22 27 31 36 43 50 58 59 57 58 56 51 46 45 48 51 47 42 37 26 22 22 27 27 21 25
6 10 13 10 17 22 23 27 35 44 52 55 55 56 53 48 46 44 37 37 43 47 46 39 38 32 21 21 21 28 24 29
7 3 7 16 20 19 25 33 43 48 49 46 44 43 43 42 39 38 38 41 43 46 42 38 33 21 19 22 21 11 22 30
3 6 15 19 19 24 33 41 38 41 43 37 37 39 41 43 41 44 48 49 44 43 37 29 30 26 19 25 25 19 24 22
9 13 20 18 20 30 31 33 34 37 40 36 38 42 45 45 47 50 53 49 38 39 33 24 30 21 20 31 32 28 24 18
11 20 18 14 24 23 32 33 33 36 35 39 42 44 51 49 44 50 48 44 35 35 33 29 28 22 10 28 40 32 28 19
14 21 16 14 18 25 32 34 32 31 37 46 47 44 54 50 42 48 45 41 35 30 28 24 26 29 7 31 36 32 34 23
18 19 17 16 20 27 33 35 33 36 44 47 44 47 52 41 40 47 46 38 30 26 21 30 32 28 14 30 36 40 33 26
20 20 19 20 26 33 37 36 33 43 45 48 42 46 42 35 40 43 40 32 25 23 29 26 35 35 12 30 31 36 35 25
21 20 23 22 26 34 44 41 39 46 50 40 39 38 32 31 38 39 36 27 26 35 35 28 30 24 11 25 31 37 32 23
22 26 28 30 27 34 43 45 42 46 49 36 34 27 31 32 32 29 35 32 30 38 33 25 20 23 2 28 35 36 29 23
26 30 33 34 33 37 41 37 39 44 44 35 24 23 27 28 29 32 38 30 34 25 25 29 28 3 6 31 38 38 31 26
33 36 38 34 36 40 32 31 36 42 40 26 22 21 24 25 27 28 22 22 22 15 26 35 26 19 21 32 40 36 33 30
34 35 35 34 36 37 27 28 33 36 36 34 23 21 22 22 23 26 24 10 16 10 22 33 34 23 18 28 24 34 34 32
29 32 32 33 32 31 28 27 31 35 33 32 30 21 20 19 20 20 20 14 8 10 16 22 29 23 10 18 28 31 32 33
30 33 34 31 34 33 26 26 33 35 31 27 27 26 21 21 22 20 19 18 16 15 15 14 16 16 8 2 24 25 24 26
30 32 32 34 35 30 25 29 33 37 35 30 28 26 23 21 21 22 20 17 16 16 15 14 13 10 4 3 13 24 24 20
33 40 39 44 42 33 32 34 35 40 42 37 34 32 27 23 22 22 22 22 19 17 15 14 14 11 10 11 11 15 26 23
35 40 29 42 36 33 35 38 40 42 44 46 42 38 35 31 26 25 23 22 23 22 19 18 19 15 13 14 17 19 25 31
Wind_Direction_500mb
159 289 313 304 291 300 300 295 299 307 309 311 312 312 311 312 315 313 305 302 305 313 312 310 317 298 276 253 230 230 234 220
58 34 321 287 310 312 306 309 311 313 314 313 314 315 316 316 317 315 306 307 308 313 314 303 316 305 274 246 230 229 225 211
96 285 280 311 321 314 315 318 319 316 316 319 319 319 320 322 324 326 320 309 313 313 314 305 317 295 249 240 236 229 222 205
342 257 305 318 314 316 321 323 321 325 328 327 330 332 336 332 328 331 325 316 315 316 315 307 305 295 252 232 216 218 196 205
44 324 321 318 321 325 328 327 333 340 343 337 335 334 334 337 332 329 326 322 313 316 319 306 304 284 266 228 216 190 202 214
336 333 330 323 327 331 339 341 340 343 346 338 335 334 332 328 328 330 329 327 320 319 320 315 325 282 272 214 201 200 207 188
330 337 326 326 336 346 347 339 336 338 336 340 340 339 338 330 328 332 334 333 329 325 327 329 331 288 289 193 188 194 200 188
321 325 311 322 335 339 341 343 342 333 338 337 337 333 335 330 335 338 334 329 325 325 336 334 335 320 231 179 188 198 186 192
317 321 306 312 325 322 326 334 338 330 336 329 333 333 335 335 338 338 334 331 326 330 337 337 337 305 237 191 187 186 192 178
318 323 316 306 310 314 320 325 331 331 328 327 329 335 333 334 341 335 336 333 333 337 353 352 339 322 197 188 189 192 183 184
312 316 314 316 310 315 311 322 319 321 327 330 337 343 347 352 342 344 352 348 352 349 358 356 337 359 162 179 178 170 176 186
304 303 308 317 313 312 318 323 319 318 325 330 337 349 345 354 353 353 354 355 352 345 346 360 353 328 147 170 174 177 179 184
305 305 308 311 310 310 319 320 315 320 329 332 328 336 337 345 349 340 339 343 346 359 7 358 353 340 309 174 178 177 179 180
303 309 307 302 302 310 315 314 317 326 329 327 322 318 326 339 342 343 349 333 353 27 16 9 6 357 161 174 182 183 191 191
305 308 306 301 304 309 311 311 318 326 328 329 321 316 323 326 335 343 346 13 16 10 13 14 11 41 164 174 184 190 194 201
302 303 306 312 309 306 304 304 307 318 327 329 327 310 310 321 328 333 336 330 336 343 352 5 12 20 93 184 196 197 200 205
298 301 303 301 307 312 304 287 297 309 311 321 322 322 304 303 313 317 321 321 312 308 321 338 342 11 26 262 210 189 200 204
298 305 306 297 302 308 285 288 294 301 305 301 306 312 317 296 297 303 301 307 311 312 318 314 316 319 314 295 206 204 208 214
297 291 294 296 301 298 282 278 282 292 297 295 293 294 297 310 292 288 289 286 289 293 297 300 311 306 285 237 220 201 206 221
295 288 298 300 299 291 282 282 282 283 287 292 285 284 283 283 297 299 283 274 274 277 281 282 288 293 281 270 253 236 224 223
Wind_Speed_850mb
4 5 15 17 28 25 26 24 27 32 37 43 49 54 58 56 53 49 45 49 54 55 52 44 39 29 24 28 27 31 30 27
6 8 12 18 11 16 22 27 31 36 43 50 58 59 57 58 56 51 46 45 48 51 47 42 37 26 22 22 27 27 21 25
6 10 13 10 17 22 23 27 35 44 52 55 55 56 53 48 46 44 37 37 43 47 46 39 38 32 21 21 21 28 24 29
7 3 7 16 20 19 25 33 43 48 49 46 44 43 43 42 39 38 38 41 43 46 42 38 33 21 19 22 21 11 22 30
3 6 15 19 19 24 33 41 38 41 43 37 37 39 41 43 41 44 48 49 44 43 37 29 30 26 19 25 25 19 24 22
9 13 20 18 20 30 31 33 34 37 40 36 38 42 45 45 47 50 53 49 38 39 33 24 30 21 20 31 32 28 24 18
11 20 18 14 24 23 32 33 33 36 35 39 42 44 51 49 44 50 48 44 35 35 33 29 28 22 10 28 40 32 28 19
14 21 16 14 18 25 32 34 32 31 37 46 47 44 54 50 42 48 45 41 35 30 28 24 26 29 7 31 36 32 34 23
18 19 17 16 20 27 33 35 33 36 44 47 44 47 52 41 40 47 46 38 30 26 21 30 32 28 14 30 36 40 33 26
20 20 19 20 26 33 37 36 33 43 45 48 42 46 42 35 40 43 40 32 25 23 29 26 35 35 12 30 31 36 35 25
21 20 23 22 26 34 44 41 39 46 50 40 39 38 32 31 38 39 36 27 26 35 35 28 30 24 11 25 31 37 32 23
22 26 28 30 27 34 43 45 42 46 49 36 34 27 31 32 32 29 35 32 30 38 33 25 20 23 2 28 35 36 29 23
26 30 33 34 33 37 41 37 39 44 44 35 24 23 27 28 29 32 38 30 34 25 25 29 28 3 6 31 38 38 31 26
33 36 38 34 36 40 32 31 36 42 40 26 22 21 24 25 27 28 22 22 22 15 26 35 26 19 21 32 40 36 33 30
34 35 35 34 36 37 27 28 33 36 36 34 23 21 22 22 23 26 24 10 16 10 22 33 34 23 18 28 24 34 34 32
29 32 32 33 32 31 28 27 31 35 33 32 30 21 20 19 20 20 20 14 8 10 16 22 29 23 10 18 28 31 32 33
30 33 34 31 34 33 26 26 33 35 31 27 27 26 21 21 22 20 19 18 16 15 15 14 16 16 8 2 24 25 24 26
30 32 32 34 35 30 25 29 33 37 35 30 28 26 23 21 21 22 20 17 16 16 15 14 13 10 4 3 13 24 24 20
33 40 39 44 42 33 32 34 35 40 42 37 34 32 27 23 22 22 22 22 19 17 15 14 14 11 10 11 11 15 26 23
35 40 29 42 36 33 35 38 40 42 44 46 42 38 35 31 26 25 23 22 23 22 19 18 19 15 13 14 17 19 25 31
Wind_Direction_850mb
159 289 313 304 291 300 300 295 299 307 309 311 312 312 311 312 315 313 305 302 305 313 312 310 317 298 276 253 230 230 234 220
58 34 321 287 310 312 306 309 311 313 314 313 314 315 316 316 317 315 306 307 308 313 314 303 316 305 274 246 230 229 225 211
96 285 280 311 321 314 315 318 319 316 316 319 319 319 320 322 324 326 320 309 313 313 314 305 317 295 249 240 236 229 222 205
342 257 305 318 314 316 321 323 321 325 328 327 330 332 336 332 328 331 325 316 315 316 315 307 305 295 252 232 216 218 196 205
44 324 321 318 321 325 328 327 333 340 343 337 335 334 334 337 332 329 326 322 313 316 319 306 304 284 266 228 216 190 202 214
336 333 330 323 327 331 339 341 340 343 346 338 335 334 332 328 328 330 329 327 320 319 320 315 325 282 272 214 201 200 207 188
330 337 326 326 336 346 347 339 336 338 336 340 340 339 338 330 328 332 334 333 329 325 327 329 331 288 289 193 188 194 200 188
321 325 311 322 335 339 341 343 342 333 338 337 337 333 335 330 335 338 334 329 325 325 336 334 335 320 231 179 188 198 186 192
317 321 306 312 325 322 326 334 338 330 336 329 333 333 335 335 338 338 334 331 326 330 337 337 337 305 237 191 187 186 192 178
318 323 316 306 310 314 320 325 331 331 328 327 329 335 333 334 341 335 336 333 333 337 353 352 339 322 197 188 189 192 183 184
312 316 314 316 310 315 311 322 319 321 327 330 337 343 347 352 342 344 352 348 352 349 358 356 337 359 162 179 178 170 176 186
304 303 308 317 313 312 318 323 319 318 325 330 337 349 345 354 353 353 354 355 352 345 346 360 353 328 147 170 174 177 179 184
305 305 308 311 310 310 319 320 315 320 329 332 328 336 337 345 349 340 339 343 346 359 7 358 353 340 309 174 178 177 179 180
303 309 307 302 302 310 315 314 317 326 329 327 322 318 326 339 342 343 349 333 353 27 16 9 6 357 161 174 182 183 191 191
305 308 306 301 304 309 311 311 318 326 328 329 321 316 323 326 335 343 346 13 16 10 13 14 11 41 164 174 184 190 194 201
302 303 306 312 309 306 304 304 307 318 327 329 327 310 310 321 328 333 336 330 336 343 352 5 12 20 93 184 196 197 200 205
298 301 303 301 307 312 304 287 297 309 311 321 322 322 304 303 313 317 321 321 312 308 321 338 342 11 26 262 210 189 200 204
298 305 306 297 302 308 285 288 294 301 305 301 306 312 317 296 297 303 301 307 311 312 318 314 316 319 314 295 206 204 208 214
297 291 294 296 301 298 282 278 282 292 297 295 293 294 297 310 292 288 289 286 289 293 297 300 311 306 285 237 220 201 206 221
295 288 298 300 299 291 282 282 282 283 287 292 285 284 283 283 297 299 283 274 274 277 281 282 288 293 281 270 253 236 224 223